TimeMDT,TemperatureF,Dew PointF,Humidity,Sea Level PressureIn,VisibilityMPH,Wind Direction,Wind SpeedMPH,Gust SpeedMPH,PrecipitationIn,Events,Conditions,WindDirDegrees,DateUTC
12:54 AM,28.9,28.0,96,29.99,10.0,SE,5.8,-,N/A,,Clear,130,2012-10-12 06:54:00
1:54 AM,30.0,28.0,92,29.95,10.0,SE,3.5,-,N/A,,Clear,140,2012-10-12 07:54:00
2:54 AM,33.1,30.0,89,29.92,10.0,SE,9.2,-,N/A,,Clear,130,2012-10-12 08:54:00
3:54 AM,33.1,28.0,82,29.90,10.0,SE,5.8,-,N/A,,Clear,140,2012-10-12 09:54:00
4:54 AM,32.0,28.0,85,29.88,10.0,ESE,6.9,-,N/A,,Clear,110,2012-10-12 10:54:00
5:54 AM,33.1,28.0,82,29.87,10.0,ESE,5.8,-,N/A,,Clear,120,2012-10-12 11:54:00
6:54 AM,34.0,28.0,79,29.87,10.0,ESE,5.8,-,N/A,,Clear,110,2012-10-12 12:54:00
8:54 AM,42.1,33.1,70,29.86,10.0,East,5.8,-,N/A,,Clear,100,2012-10-12 14:54:00
10:54 AM,64.9,30.0,27,29.78,10.0,WSW,13.8,-,N/A,,Clear,250,2012-10-12 16:54:00
11:54 AM,69.1,27.0,21,29.75,10.0,West,17.3,-,N/A,,Clear,260,2012-10-12 17:54:00
12:54 PM,71.1,21.9,16,29.72,10.0,West,15.0,25.3,N/A,,Clear,270,2012-10-12 18:54:00
1:54 PM,73.0,18.0,12,29.69,10.0,WSW,20.7,28.8,N/A,,Clear,250,2012-10-12 19:54:00
2:54 PM,73.9,17.1,12,29.67,10.0,West,19.6,-,N/A,,Clear,270,2012-10-12 20:54:00
4:54 PM,71.1,17.1,13,29.68,10.0,West,17.3,-,N/A,,Clear,260,2012-10-12 22:54:00
5:54 PM,64.9,23.0,20,29.69,10.0,West,10.4,-,N/A,,Clear,260,2012-10-12 23:54:00
6:54 PM,55.0,24.1,30,29.72,10.0,SW,12.7,-,N/A,,Clear,220,2012-10-13 00:54:00
8:54 PM,52.0,28.9,41,29.75,10.0,WSW,9.2,-,N/A,,Scattered Clouds,240,2012-10-13 02:54:00
9:54 PM,51.1,28.0,41,29.74,10.0,NE,5.8,-,N/A,,Clear,40,2012-10-13 03:54:00
10:54 PM,50.0,26.1,39,29.73,10.0,WSW,8.1,-,N/A,,Clear,250,2012-10-13 04:54:00
11:54 PM,50.0,26.1,39,29.73,10.0,WSW,9.2,-,N/A,,Clear,250,2012-10-13 05:54:00